Location: Wingville
(42.9917°N, 90.4915°W)
Time: 22:16:28
(UTC+00:00)

CUBESAT XI-V - Pass Details

Date: 08 July 2022
Orbit: 667 x 690 km, 98.1° (Epoch: 07 August)

Event Time Altitude Azimuth Distance (km) Brightness Sun altitude
Exits shadow 08:47:59 20° 247° (WSW) 1,529 ? -14.8°
Maximum altitude 08:49:02 22° 266° (W) 1,463 ? -14.7°
Drops below altitude 10° 08:52:35 10° 317° (NW) 2,103 ? -14.3°
Sets 08:55:17 0° 333° (NNW) 3,020 ? -14.0°
